User: anonymous   Login
Location: Unspecified
(0.0000°N, 0.0000°E)
Time: 19:32:34
(UTC+00:00)
Language:

DELFI-N3XT - Orbit

View from above orbital plane
View from above orbital plane
View from above satellite
View from above satellite

Ground track
Ground track

The orbit data is extracted from the following two-line orbital elements,

1 39420U 13066E   19340.76322693 +.00000226 +00000-0 +47694-4 0  9993
2 39420 097.7492 293.8779 0138480 040.9847 320.1664 14.62282353322251
Epoch (UTC): 06 December 2019 18:19:02
Eccentricity: 0.0138480
inclination: 97.7492°
perigee height: 588 km
apogee height: 783 km
right ascension of ascending node: 293.8779°
argument of perigee: 40.9847°
revolutions per day: 14.62282353
mean anomaly at epoch: 320.1664°
orbit number at epoch: 32225

The dashed part of the orbit path shows where the satellite is in the earth's shadow,  

DLR